JBU617 KCMH-KHPN

Flight info

Callsign JBU617
Flight time 1h 21m
Altitude 37000
Route RDBUV NOWZU DJB JHW MEMMS DANZI VALRE1
Aircraft A320/M-SDE3FGHIRWY/LB1

Departure

Time 2026-05-08 19:57
Airport John Glenn Columbus International Airport (KCMH)

Arrival

Time 2026-05-08 21:18
Airport Westchester County Airport (KHPN)
Time Latitude Longitude Altitude Speed Heading
2026-05-08 19:35 39.99746 -82.88154 808 ft 0 kts
2026-05-08 19:44 39.99735 -82.88155 808 ft 2 kts
2026-05-08 19:44 39.99721 -82.88160 808 ft 2 kts 21°
2026-05-08 19:45 39.99707 -82.88168 808 ft 2 kts 31°
2026-05-08 19:45 39.99695 -82.88180 808 ft 2 kts 42°
2026-05-08 19:45 39.99685 -82.88194 808 ft 2 kts 53°
2026-05-08 19:45 39.99677 -82.88210 808 ft 2 kts 64°
2026-05-08 19:46 39.99671 -82.88229 808 ft 2 kts 75°
2026-05-08 19:46 39.99668 -82.88248 808 ft 2 kts 85°
2026-05-08 19:46 39.99668 -82.88266 808 ft 0 kts 94°
2026-05-08 19:51 39.99667 -82.88251 808 ft 6 kts 101°
2026-05-08 19:52 39.99642 -82.88171 807 ft 11 kts 117°
2026-05-08 19:52 39.99609 -82.88073 807 ft 14 kts 104°
2026-05-08 19:52 39.99597 -82.87949 807 ft 14 kts 94°
2026-05-08 19:52 39.99587 -82.87820 806 ft 15 kts 99°
2026-05-08 19:53 39.99570 -82.87688 806 ft 15 kts 97°
2026-05-08 19:53 39.99562 -82.87552 806 ft 15 kts 94°
2026-05-08 19:53 39.99554 -82.87415 805 ft 9 kts 93°
2026-05-08 19:53 39.99549 -82.87326 804 ft 11 kts 103°
2026-05-08 19:54 39.99495 -82.87288 805 ft 10 kts 188°
2026-05-08 19:54 39.99434 -82.87300 806 ft 8 kts 186°
2026-05-08 19:54 39.99379 -82.87307 806 ft 8 kts 185°
2026-05-08 19:54 39.99322 -82.87314 807 ft 8 kts 186°
2026-05-08 19:55 39.99265 -82.87322 807 ft 8 kts 185°
2026-05-08 19:55 39.99208 -82.87328 808 ft 8 kts 184°
2026-05-08 19:55 39.99171 -82.87344 808 ft 5 kts 236°
2026-05-08 19:55 39.99166 -82.87375 808 ft 0 kts 274°
2026-05-08 19:56 39.99166 -82.87376 808 ft 2 kts 274°
2026-05-08 19:56 39.99185 -82.87712 809 ft 72 kts 273°
2026-05-08 19:56 39.99233 -82.88636 809 ft 131 kts 274°
2026-05-08 19:56 39.99324 -82.89967 1133 ft 152 kts 270°
2026-05-08 19:57 39.99401 -82.91313 1765 ft 152 kts 268°
2026-05-08 19:57 39.99475 -82.92652 2516 ft 149 kts 271°
2026-05-08 19:57 39.99566 -82.94021 3027 ft 161 kts 271°
2026-05-08 19:57 39.99670 -82.95533 3478 ft 178 kts 272°
2026-05-08 19:58 40.00026 -82.97161 3844 ft 207 kts 302°
2026-05-08 19:58 40.01289 -82.98273 4297 ft 242 kts 342°
2026-05-08 19:58 40.03046 -82.98139 4816 ft 273 kts 17°
2026-05-08 19:58 40.04765 -82.96888 5472 ft 291 kts 30°
2026-05-08 19:59 40.06450 -82.95414 6300 ft 297 kts 30°
2026-05-08 19:59 40.08183 -82.93977 7188 ft 299 kts 27°
2026-05-08 19:59 40.09966 -82.92606 8048 ft 301 kts 25°
2026-05-08 19:59 40.11811 -82.91273 8898 ft 304 kts 23°
2026-05-08 20:00 40.13665 -82.89979 9747 ft 305 kts 21°
2026-05-08 20:00 40.15548 -82.88694 10493 ft 309 kts 20°
2026-05-08 20:00 40.17515 -82.87375 10930 ft 324 kts 21°
2026-05-08 20:00 40.19556 -82.86008 11342 ft 339 kts 21°
2026-05-08 20:01 40.21698 -82.84571 11739 ft 353 kts 21°
2026-05-08 20:01 40.23882 -82.83094 12414 ft 357 kts 21°
2026-05-08 20:01 40.26080 -82.81603 13126 ft 359 kts 21°
2026-05-08 20:01 40.28291 -82.80104 13861 ft 361 kts 21°
2026-05-08 20:02 40.30527 -82.78589 14461 ft 366 kts 20°
2026-05-08 20:02 40.32812 -82.77041 15062 ft 370 kts 20°
2026-05-08 20:02 40.35095 -82.75492 15648 ft 373 kts 20°
2026-05-08 20:02 40.37393 -82.73862 16204 ft 382 kts 26°
2026-05-08 20:03 40.39350 -82.71425 16734 ft 400 kts 47°
2026-05-08 20:03 40.40921 -82.68387 17285 ft 407 kts 52°
2026-05-08 20:03 40.42419 -82.65232 17773 ft 412 kts 52°
2026-05-08 20:03 40.43955 -82.62045 18290 ft 416 kts 51°
2026-05-08 20:04 40.45542 -82.58854 18853 ft 418 kts 51°
2026-05-08 20:04 40.47159 -82.55687 19402 ft 420 kts 50°
2026-05-08 20:04 40.48799 -82.52520 19933 ft 423 kts 49°
2026-05-08 20:04 40.50463 -82.49337 20405 ft 427 kts 49°
2026-05-08 20:05 40.52146 -82.46127 20851 ft 431 kts 49°
2026-05-08 20:05 40.53855 -82.42881 21294 ft 435 kts 49°
2026-05-08 20:05 40.55570 -82.39614 21811 ft 437 kts 49°
2026-05-08 20:05 40.57312 -82.36299 22237 ft 441 kts 49°
2026-05-08 20:06 40.59059 -82.32971 22647 ft 445 kts 49°
2026-05-08 20:06 40.60831 -82.29592 23096 ft 448 kts 49°
2026-05-08 20:06 40.62605 -82.26206 23503 ft 451 kts 49°
2026-05-08 20:06 40.64385 -82.22804 23915 ft 454 kts 49°
2026-05-08 20:07 40.66172 -82.19385 24342 ft 456 kts 49°
2026-05-08 20:07 40.67969 -82.15950 24683 ft 460 kts 49°
2026-05-08 20:07 40.69793 -82.12448 25076 ft 463 kts 49°
2026-05-08 20:07 40.71613 -82.08958 25458 ft 466 kts 49°
2026-05-08 20:08 40.73445 -82.05442 25817 ft 469 kts 49°
2026-05-08 20:08 40.75283 -82.01899 26170 ft 472 kts 49°
2026-05-08 20:08 40.77141 -81.98325 26504 ft 475 kts 49°
2026-05-08 20:08 40.79006 -81.94733 26823 ft 478 kts 49°
2026-05-08 20:09 40.80883 -81.91106 27182 ft 481 kts 49°
2026-05-08 20:09 40.82783 -81.87433 27526 ft 483 kts 49°
2026-05-08 20:09 40.84673 -81.83772 27861 ft 486 kts 49°
2026-05-08 20:09 40.86577 -81.80084 28178 ft 489 kts 48°
2026-05-08 20:10 40.88488 -81.76378 28488 ft 491 kts 49°
2026-05-08 20:10 40.90407 -81.72649 28820 ft 494 kts 49°
2026-05-08 20:10 40.92334 -81.68903 29131 ft 496 kts 48°
2026-05-08 20:10 40.94270 -81.65133 29433 ft 499 kts 49°
2026-05-08 20:11 40.96229 -81.61317 29731 ft 501 kts 49°
2026-05-08 20:11 40.98182 -81.57507 30001 ft 504 kts 49°
2026-05-08 20:11 41.00151 -81.53664 30272 ft 507 kts 49°
2026-05-08 20:11 41.02132 -81.49791 30545 ft 509 kts 49°
2026-05-08 20:12 41.04111 -81.45909 30842 ft 510 kts 49°
2026-05-08 20:12 41.06088 -81.42028 31174 ft 510 kts 49°
2026-05-08 20:12 41.08060 -81.38148 31516 ft 509 kts 49°
2026-05-08 20:12 41.10045 -81.34241 31862 ft 509 kts 49°
2026-05-08 20:13 41.12028 -81.30340 32138 ft 509 kts 49°
2026-05-08 20:13 41.14015 -81.26425 32393 ft 510 kts 49°
2026-05-08 20:13 41.16001 -81.22506 32689 ft 510 kts 49°
2026-05-08 20:13 41.17981 -81.18593 32950 ft 511 kts 49°
2026-05-08 20:14 41.19954 -81.14690 33201 ft 512 kts 49°
2026-05-08 20:14 41.21921 -81.10783 33512 ft 511 kts 49°
2026-05-08 20:14 41.23910 -81.06839 33789 ft 511 kts 48°
2026-05-08 20:14 41.25874 -81.02938 34061 ft 511 kts 48°
2026-05-08 20:15 41.27840 -80.99026 34316 ft 511 kts 48°
2026-05-08 20:15 41.29811 -80.95106 34526 ft 511 kts 48°
2026-05-08 20:15 41.31778 -80.91189 34741 ft 511 kts 48°
2026-05-08 20:15 41.33740 -80.87272 34943 ft 510 kts 49°
2026-05-08 20:16 41.35695 -80.83363 35127 ft 510 kts 49°
2026-05-08 20:16 41.37667 -80.79414 35327 ft 509 kts 49°
2026-05-08 20:16 41.39619 -80.75499 35492 ft 510 kts 48°
2026-05-08 20:16 41.41573 -80.71585 35641 ft 511 kts 49°
2026-05-08 20:17 41.43530 -80.67654 35793 ft 512 kts 49°
2026-05-08 20:17 41.45489 -80.63712 35959 ft 513 kts 49°
2026-05-08 20:17 41.47451 -80.59759 36137 ft 514 kts 49°
2026-05-08 20:17 41.49416 -80.55797 36299 ft 515 kts 49°
2026-05-08 20:18 41.51400 -80.51789 36482 ft 516 kts 49°
2026-05-08 20:18 41.53369 -80.47802 36666 ft 516 kts 49°
2026-05-08 20:18 41.55337 -80.43819 36845 ft 517 kts 49°
2026-05-08 20:18 41.57310 -80.39817 36880 ft 518 kts 49°
2026-05-08 20:19 41.61253 -80.31806 36990 ft 518 kts 50°
2026-05-08 20:19 41.65206 -80.23752 36917 ft 517 kts 50°
2026-05-08 20:20 41.69128 -80.15732 36902 ft 517 kts 50°
2026-05-08 20:20 41.73043 -80.07714 36892 ft 517 kts 50°
2026-05-08 20:21 41.76941 -79.99706 36882 ft 515 kts 50°
2026-05-08 20:21 41.80850 -79.91660 36886 ft 515 kts 50°
2026-05-08 20:22 41.84737 -79.83635 36890 ft 515 kts 50°
2026-05-08 20:22 41.87984 -79.76914 36891 ft 515 kts 50°
2026-05-08 20:23 41.92510 -79.67520 36885 ft 515 kts 50°
2026-05-08 20:23 41.96375 -79.59474 36882 ft 514 kts 50°
2026-05-08 20:24 42.00223 -79.51435 36877 ft 513 kts 50°
2026-05-08 20:24 42.04073 -79.43386 36875 ft 515 kts 50°
2026-05-08 20:25 42.07918 -79.35303 36876 ft 513 kts 50°
2026-05-08 20:25 42.11763 -79.27212 36881 ft 512 kts 51°
2026-05-08 20:26 42.15446 -79.19155 36880 ft 516 kts 56°
2026-05-08 20:26 42.18431 -79.10312 36877 ft 522 kts 66°
2026-05-08 20:27 42.20399 -79.00888 36866 ft 527 kts 76°
2026-05-08 20:27 42.21642 -78.91112 36856 ft 527 kts 78°
2026-05-08 20:28 42.22726 -78.82133 36855 ft 526 kts 78°
2026-05-08 20:28 42.23926 -78.72414 36849 ft 526 kts 77°
2026-05-08 20:29 42.25137 -78.62708 36850 ft 526 kts 77°
2026-05-08 20:29 42.26347 -78.52995 36854 ft 527 kts 77°
2026-05-08 20:30 42.27551 -78.43232 36865 ft 526 kts 77°
2026-05-08 20:30 42.28743 -78.33529 36865 ft 527 kts 78°
2026-05-08 20:31 42.29935 -78.23748 36860 ft 527 kts 78°
2026-05-08 20:31 42.31109 -78.14015 36857 ft 527 kts 78°
2026-05-08 20:32 42.32285 -78.04213 36851 ft 527 kts 78°
2026-05-08 20:32 42.33445 -77.94458 36845 ft 527 kts 78°
2026-05-08 20:33 42.34597 -77.84724 36847 ft 527 kts 78°
2026-05-08 20:33 42.35744 -77.74928 36847 ft 527 kts 78°
2026-05-08 20:34 42.36878 -77.65185 36851 ft 526 kts 78°
2026-05-08 20:35 42.38561 -77.50595 36846 ft 526 kts 78°
2026-05-08 20:35 42.39675 -77.40831 36852 ft 525 kts 78°
2026-05-08 20:36 42.40779 -77.31085 36847 ft 525 kts 78°
2026-05-08 20:36 42.41859 -77.21469 36850 ft 524 kts 78°
2026-05-08 20:37 42.42940 -77.11765 36853 ft 523 kts 78°
2026-05-08 20:37 42.44019 -77.02026 36855 ft 523 kts 78°
2026-05-08 20:38 42.45084 -76.92309 36854 ft 523 kts 78°
2026-05-08 20:38 42.46141 -76.82595 36859 ft 523 kts 78°
2026-05-08 20:39 42.47192 -76.72854 36862 ft 523 kts 78°
2026-05-08 20:39 42.48228 -76.63160 36873 ft 523 kts 78°
2026-05-08 20:40 42.49256 -76.53445 36879 ft 523 kts 78°
2026-05-08 20:40 42.50277 -76.43732 36881 ft 522 kts 79°
2026-05-08 20:41 42.50748 -76.33876 36671 ft 526 kts 90°
2026-05-08 20:41 42.50503 -76.28930 36463 ft 524 kts 96°
2026-05-08 20:41 42.49927 -76.24068 36258 ft 522 kts 102°
2026-05-08 20:41 42.49041 -76.19331 36051 ft 520 kts 108°
2026-05-08 20:42 42.47930 -76.14714 35842 ft 518 kts 110°
2026-05-08 20:42 42.46765 -76.10125 35634 ft 517 kts 110°
2026-05-08 20:42 42.45580 -76.05503 35423 ft 518 kts 110°
2026-05-08 20:42 42.44416 -76.00913 35215 ft 519 kts 110°
2026-05-08 20:43 42.43263 -75.96304 35010 ft 519 kts 110°
2026-05-08 20:43 42.42113 -75.91690 34809 ft 520 kts 109°
2026-05-08 20:43 42.40957 -75.87044 34610 ft 520 kts 109°
2026-05-08 20:43 42.39807 -75.82419 34401 ft 521 kts 109°
2026-05-08 20:44 42.38654 -75.77785 34196 ft 522 kts 109°
2026-05-08 20:44 42.37493 -75.73126 33981 ft 522 kts 109°
2026-05-08 20:44 42.36337 -75.68495 33771 ft 523 kts 109°
2026-05-08 20:44 42.35178 -75.63861 33567 ft 523 kts 109°
2026-05-08 20:45 42.34016 -75.59239 33359 ft 523 kts 109°
2026-05-08 20:45 42.33242 -75.56160 33217 ft 523 kts 109°
2026-05-08 20:45 42.31687 -75.49981 32945 ft 523 kts 109°
2026-05-08 20:45 42.30520 -75.45349 32550 ft 523 kts 109°
2026-05-08 20:46 42.29342 -75.40702 32044 ft 522 kts 109°
2026-05-08 20:46 42.28171 -75.36081 31534 ft 523 kts 109°
2026-05-08 20:46 42.26998 -75.31456 31021 ft 523 kts 109°
2026-05-08 20:46 42.25846 -75.26928 30521 ft 524 kts 109°
2026-05-08 20:47 42.24668 -75.22313 29967 ft 520 kts 109°
2026-05-08 20:47 42.23503 -75.17754 29431 ft 515 kts 109°
2026-05-08 20:47 42.22345 -75.13233 28883 ft 510 kts 109°
2026-05-08 20:47 42.21189 -75.08726 28333 ft 505 kts 109°
2026-05-08 20:48 42.20047 -75.04291 27789 ft 501 kts 109°
2026-05-08 20:48 42.18903 -74.99909 27238 ft 496 kts 111°
2026-05-08 20:48 42.17616 -74.95633 26697 ft 492 kts 115°
2026-05-08 20:48 42.16135 -74.91515 26147 ft 487 kts 119°
2026-05-08 20:49 42.14509 -74.87558 25606 ft 483 kts 121°
2026-05-08 20:49 42.12857 -74.83659 25060 ft 480 kts 121°
2026-05-08 20:49 42.11202 -74.79764 24511 ft 476 kts 121°
2026-05-08 20:49 42.09575 -74.75930 23963 ft 472 kts 121°
2026-05-08 20:50 42.07962 -74.72114 23436 ft 469 kts 121°
2026-05-08 20:50 42.06367 -74.68327 22906 ft 466 kts 121°
2026-05-08 20:50 42.04780 -74.64568 22382 ft 463 kts 121°
2026-05-08 20:50 42.03195 -74.60813 21845 ft 460 kts 121°
2026-05-08 20:51 42.01629 -74.57100 21323 ft 457 kts 121°
2026-05-08 20:51 42.00057 -74.53384 20788 ft 455 kts 121°
2026-05-08 20:51 41.98505 -74.49718 20256 ft 452 kts 121°
2026-05-08 20:51 41.96960 -74.46071 19730 ft 450 kts 121°
2026-05-08 20:52 41.95429 -74.42463 19221 ft 442 kts 121°
2026-05-08 20:52 41.93933 -74.38945 18684 ft 430 kts 121°
2026-05-08 20:52 41.92460 -74.35484 18155 ft 427 kts 121°
2026-05-08 20:52 41.91055 -74.32187 17675 ft 424 kts 121°
2026-05-08 20:53 41.89596 -74.28768 17168 ft 422 kts 121°
2026-05-08 20:53 41.88251 -74.25618 16690 ft 415 kts 121°
2026-05-08 20:53 41.86869 -74.22379 16210 ft 410 kts 121°
2026-05-08 20:53 41.85743 -74.19818 15817 ft 407 kts 123°
2026-05-08 20:54 41.84203 -74.16667 15340 ft 403 kts 126°
2026-05-08 20:54 41.82639 -74.13594 14854 ft 396 kts 127°
2026-05-08 20:54 41.81087 -74.10567 14375 ft 394 kts 127°
2026-05-08 20:54 41.79536 -74.07545 13885 ft 391 kts 127°
2026-05-08 20:55 41.78010 -74.04565 13404 ft 384 kts 127°
2026-05-08 20:55 41.76517 -74.01648 12920 ft 381 kts 127°
2026-05-08 20:55 41.75163 -73.99007 12476 ft 377 kts 127°
2026-05-08 20:55 41.73689 -73.96125 11981 ft 367 kts 127°
2026-05-08 20:56 41.72750 -73.94295 11664 ft 361 kts 127°
2026-05-08 20:56 41.72411 -73.93633 11547 ft 359 kts 127°
2026-05-08 20:56 41.71406 -73.91674 11200 ft 354 kts 128°
2026-05-08 20:57 41.68298 -73.85723 10121 ft 347 kts 134°
2026-05-08 20:57 41.66470 -73.83755 9623 ft 333 kts 160°
2026-05-08 20:57 41.64294 -73.82931 9171 ft 317 kts 182°
2026-05-08 20:57 41.62191 -73.83144 8793 ft 292 kts 198°
2026-05-08 20:58 41.60252 -73.83683 8407 ft 277 kts 199°
2026-05-08 20:58 41.58409 -73.84217 8022 ft 267 kts 199°
2026-05-08 20:58 41.56688 -73.84706 7661 ft 266 kts 198°
2026-05-08 20:58 41.54791 -73.85231 7267 ft 267 kts 197°
2026-05-08 20:59 41.52962 -73.85721 6887 ft 269 kts 197°
2026-05-08 20:59 41.51125 -73.86202 6511 ft 270 kts 196°
2026-05-08 20:59 41.49276 -73.86682 6135 ft 272 kts 196°
2026-05-08 20:59 41.47432 -73.87153 5964 ft 265 kts 195°
2026-05-08 21:00 41.45635 -73.87609 5962 ft 263 kts 195°
2026-05-08 21:00 41.43772 -73.87735 5954 ft 272 kts 175°
2026-05-08 21:00 41.41969 -73.86876 5962 ft 279 kts 153°
2026-05-08 21:00 41.40341 -73.85444 5850 ft 280 kts 148°
2026-05-08 21:01 41.38764 -73.83944 5722 ft 278 kts 147°
2026-05-08 21:01 41.37188 -73.82457 5599 ft 277 kts 148°
2026-05-08 21:01 41.35617 -73.81002 5476 ft 276 kts 148°
2026-05-08 21:01 41.34036 -73.79559 5351 ft 274 kts 148°
2026-05-08 21:02 41.32448 -73.78117 5227 ft 274 kts 148°
2026-05-08 21:02 41.31168 -73.76958 5124 ft 273 kts 148°
2026-05-08 21:02 41.30516 -73.76368 5072 ft 273 kts 148°
2026-05-08 21:02 41.28846 -73.74856 4939 ft 273 kts 148°
2026-05-08 21:03 41.27434 -73.73577 4827 ft 272 kts 149°
2026-05-08 21:03 41.26524 -73.72754 4754 ft 271 kts 149°
2026-05-08 21:03 41.23481 -73.70010 4505 ft 270 kts 149°
2026-05-08 21:04 41.21923 -73.68604 4377 ft 270 kts 149°
2026-05-08 21:04 41.20356 -73.67192 4250 ft 270 kts 149°
2026-05-08 21:04 41.18801 -73.65792 4125 ft 269 kts 149°
2026-05-08 21:04 41.17252 -73.64396 4000 ft 269 kts 149°
2026-05-08 21:05 41.15703 -73.63005 3978 ft 269 kts 149°
2026-05-08 21:05 41.14150 -73.61610 3976 ft 268 kts 149°
2026-05-08 21:05 41.12608 -73.60219 3975 ft 269 kts 149°
2026-05-08 21:05 41.11066 -73.58817 3975 ft 269 kts 149°
2026-05-08 21:06 41.09518 -73.57401 3973 ft 266 kts 149°
2026-05-08 21:06 41.08026 -73.56023 3969 ft 258 kts 149°
2026-05-08 21:06 41.06551 -73.54656 3973 ft 258 kts 149°
2026-05-08 21:06 41.05075 -73.53287 3975 ft 258 kts 149°
2026-05-08 21:07 41.03630 -73.51944 3966 ft 249 kts 148°
2026-05-08 21:07 41.02219 -73.50636 3963 ft 248 kts 149°
2026-05-08 21:07 41.00799 -73.49345 3964 ft 247 kts 150°
2026-05-08 21:07 40.99349 -73.48086 3963 ft 248 kts 150°
2026-05-08 21:08 40.97907 -73.46848 3961 ft 247 kts 151°
2026-05-08 21:08 40.96465 -73.45606 3960 ft 247 kts 151°
2026-05-08 21:08 40.95020 -73.44356 3955 ft 248 kts 150°
2026-05-08 21:08 40.93579 -73.43109 3739 ft 248 kts 151°
2026-05-08 21:09 40.92144 -73.41865 3489 ft 248 kts 150°
2026-05-08 21:09 40.90698 -73.40621 3236 ft 247 kts 150°
2026-05-08 21:09 40.89277 -73.39575 2995 ft 232 kts 169°
2026-05-08 21:09 40.87749 -73.39521 2968 ft 216 kts 204°
2026-05-08 21:10 40.86561 -73.40532 2974 ft 205 kts 237°
2026-05-08 21:10 40.86026 -73.42206 2983 ft 199 kts 261°
2026-05-08 21:10 40.85843 -73.44005 2979 ft 198 kts 266°
2026-05-08 21:10 40.85726 -73.45796 2967 ft 191 kts 267°
2026-05-08 21:11 40.85672 -73.47509 3054 ft 188 kts 276°
2026-05-08 21:11 40.86103 -73.49103 3000 ft 178 kts 294°
2026-05-08 21:11 40.86524 -73.50156 2966 ft 170 kts 296°
2026-05-08 21:11 40.87089 -73.51505 2996 ft 168 kts 297°
2026-05-08 21:12 40.87656 -73.52851 2897 ft 168 kts 297°
2026-05-08 21:12 40.88219 -73.54189 2646 ft 166 kts 297°
2026-05-08 21:12 40.88825 -73.55481 2396 ft 166 kts 302°
2026-05-08 21:12 40.89534 -73.56675 2153 ft 165 kts 307°
2026-05-08 21:13 40.90334 -73.57768 1973 ft 164 kts 315°
2026-05-08 21:13 40.91193 -73.58660 1950 ft 149 kts 321°
2026-05-08 21:13 40.92011 -73.59369 1925 ft 134 kts 322°
2026-05-08 21:13 40.92789 -73.59997 1948 ft 127 kts 324°
2026-05-08 21:14 40.93536 -73.60582 1951 ft 124 kts 323°
2026-05-08 21:14 40.94278 -73.61160 1954 ft 124 kts 324°
2026-05-08 21:14 40.95020 -73.61732 1960 ft 123 kts 324°
2026-05-08 21:14 40.95766 -73.62304 1970 ft 123 kts 324°
2026-05-08 21:15 40.96507 -73.62872 1967 ft 123 kts 324°
2026-05-08 21:15 40.97251 -73.63440 1967 ft 123 kts 324°
2026-05-08 21:15 40.97992 -73.64005 1967 ft 123 kts 324°
2026-05-08 21:15 40.98733 -73.64571 1974 ft 123 kts 323°
2026-05-08 21:16 40.99470 -73.65134 1858 ft 124 kts 324°
2026-05-08 21:16 41.00206 -73.65698 1700 ft 123 kts 324°
2026-05-08 21:16 41.00948 -73.66265 1545 ft 123 kts 323°
2026-05-08 21:16 41.01683 -73.66827 1378 ft 122 kts 324°
2026-05-08 21:17 41.02413 -73.67388 1210 ft 122 kts 325°
2026-05-08 21:17 41.03145 -73.67949 1052 ft 122 kts 325°
2026-05-08 21:17 41.03878 -73.68509 890 ft 121 kts 325°
2026-05-08 21:17 41.04605 -73.69065 738 ft 121 kts 325°
2026-05-08 21:18 41.05333 -73.69616 592 ft 120 kts 326°
2026-05-08 21:18 41.06058 -73.70180 405 ft 118 kts 326°
2026-05-08 21:18 41.06662 -73.70653 395 ft 64 kts 331°
2026-05-08 21:18 41.06825 -73.70717 400 ft 13 kts 43°
2026-05-08 21:19 41.06855 -73.70666 400 ft 0 kts 58°
2026-05-08 21:20 41.06864 -73.70639 400 ft 6 kts 75°
2026-05-08 21:20 41.06860 -73.70604 400 ft 2 kts 115°
2026-05-08 21:20 41.06855 -73.70572 400 ft 3 kts 84°
2026-05-08 21:20 41.06863 -73.70545 399 ft 0 kts 59°
2026-05-08 21:21 41.06866 -73.70537 399 ft 0 kts 59°